Location: Caltech
(34.1382°N, 118.1253°W)
Time: 03:10:04
(UTC-07:00)

SL-16 R/B - Visible Passes

Search period start: 30 July 2015 00:00
Search period end: 09 August 2015 00:00
Orbit: 843 x 846 km, 71.0° (Epoch: 28 July)

Date Brightness Start Highest point End Pass type
(mag) Time Alt. Az. Time Alt. Az. Time Alt. Az.
03 Aug 4.4 05:36:24 10° SSE 05:40:55 26° ESE 05:45:36 10° NE visible
04 Aug 4.4 05:22:17 10° SSE 05:26:43 25° ESE 05:31:19 10° NE visible
05 Aug 4.4 05:08:11 10° SSE 05:12:32 24° ESE 05:17:03 10° NE visible
06 Aug 4.4 04:54:05 10° SSE 04:58:20 23° ESE 05:02:46 10° NE visible
07 Aug 4.4 04:40:01 10° SSE 04:44:08 22° ESE 04:48:28 10° NE visible
08 Aug 4.4 04:25:55 10° SSE 04:29:57 21° ESE 04:34:11 10° NE visible
